Location: Grantsboro
(35.1404°N, 76.8424°W)
Time: 19:39:55
(UTC+00:00)

Cosmos 44 - Pass Details

Date: 18 January 2020
Orbit: 595 x 767 km, 65.1° (Epoch: 21 February)

Event Time Altitude Azimuth Distance (km) Brightness Sun altitude
Exits shadow 10:19:08 59° 208° (SSW) 714 3.2 -23.3°
Drops below altitude 10° 10:23:07 10° 163° (SSE) 2,011 6.0 -22.5°
Sets 10:25:28 0° 160° (SSE) 2,942 6.9 -22.0°
